Binghamton, NY

12:10 PM EST on November 21, 2019 (GMT -0500)
Binghamton Regional-Link

Weather History for KBGM - September, 2019

Change the Weather History Date:

Friday, September 13, 2019

  Actual Average Record
Temperature  
Mean Temperature 56 °F 61 °F  
Max Temperature 65 °F 70 °F 87 °F (1952)
Min Temperature 47 °F 52 °F 37 °F (1964)
Degree Days  
Heating Degree Days 9 5  
Month to date heating degree days 54 51  
Since 1 July heating degree days 91 114  
Cooling Degree Days 0 1  
Month to date cooling degree days 9 20  
Year to date cooling degree days 371 368  
Growing Degree Days 5 (Base 50)    
Moisture  
Dew Point 48 °F    
Average Humidity 78    
Maximum Humidity 100    
Minimum Humidity 56    
Precipitation  
Precipitation 0.00 in 0.12 in 0.91 in (1965)
Month to date precipitation 1.56 1.51  
Year to date precipitation 30.35 27.72  
Snow  
Snow 0.00 in 0.00 in 0.00 in (2002)
Month to date snowfall 0.0 0.0  
Since 1 July snowfall 0.0 0.0  
Since 1 September snowfall 0.0 0.0  
Snow Depth 0.00 in    
Sea Level Pressure  
Sea Level Pressure 30.37 in    
Wind  
Wind Speed 11 mph (SE)    
Max Wind Speed 20 mph    
Max Gust Speed 29 mph    
Visibility 10 miles    
Events      
T = Trace of Precipitation, MM = Missing Value Source: NWS Daily Summary

Daily Weather History Graph

Daily Weather History Graph

Search for Another Location

Airport or City:

Astronomy

Sep. 13, 2019 Rise Set
Actual Time 6:41 AM EDT 7:17 PM EDT
Civil Twilight 6:13 AM EDT 7:45 PM EDT
Nautical Twilight 5:39 AM EDT 8:18 PM EDT
Astronomical Twilight 5:05 AM EDT 8:53 PM EDT
Moon 7:31 PM EDT (9/13) 5:54 AM EDT (9/13)
Length of Visible Light 13h 32m
Length of Day
12h 35m
Full, 100% of the Moon is Illuminated
Sep 13
Full
Sep 14
Full
Sep 21
Last Quarter
Sep 28
New
Oct 5
First Quarter

Hourly Weather History & Observations

Time (EDT) Temp. Dew Point Humidity Pressure Visibility Wind Dir Wind Speed Gust Speed Precip Events Conditions
12:53 AM 52.0 °F 50.0 °F 93% 30.33 in 10.0 mi East 6.9 mph - N/A   Clear
1:53 AM 51.1 °F 48.9 °F 92% 30.34 in 10.0 mi East 6.9 mph - N/A   Clear
2:53 AM 50.0 °F 48.0 °F 93% 30.34 in 10.0 mi East 9.2 mph - N/A   Clear
3:19 AM 50.0 °F 48.0 °F 93% 30.35 in 10.0 mi ENE 6.9 mph - N/A   Mostly Cloudy
3:53 AM 50.0 °F 48.0 °F 93% 30.34 in 10.0 mi East 6.9 mph - N/A   Overcast
4:53 AM 48.9 °F 48.0 °F 97% 30.34 in 10.0 mi East 6.9 mph - N/A   Overcast
5:21 AM 48.9 °F 46.9 °F 93% 30.34 in 10.0 mi East 5.8 mph - N/A   Scattered Clouds
5:53 AM 48.0 °F 46.0 °F 93% 30.37 in 10.0 mi East 5.8 mph - N/A   Partly Cloudy
6:53 AM 48.0 °F 46.0 °F 93% 30.40 in 10.0 mi East 5.8 mph - N/A   Clear
7:53 AM 50.0 °F 46.9 °F 89% 30.40 in 10.0 mi ESE 9.2 mph - N/A   Clear
8:09 AM 51.1 °F 48.0 °F 89% 30.40 in 10.0 mi SE 9.2 mph - N/A   Mostly Cloudy
8:53 AM 53.1 °F 48.9 °F 86% 30.42 in 10.0 mi SE 11.5 mph - N/A   Overcast
9:53 AM 55.9 °F 48.9 °F 77% 30.43 in 10.0 mi SE 11.5 mph - N/A   Overcast
10:53 AM 59.0 °F 48.0 °F 67% 30.42 in 10.0 mi SSE 12.7 mph 19.6 mph N/A   Overcast
11:01 AM 59.0 °F 46.9 °F 64% 30.41 in 10.0 mi SE 17.3 mph 20.7 mph N/A   Overcast
11:53 AM 62.1 °F 48.0 °F 60% 30.41 in 10.0 mi SE 13.8 mph 19.6 mph N/A   Overcast
12:53 PM 64.0 °F 48.9 °F 58% 30.40 in 10.0 mi SSE 15.0 mph 23.0 mph N/A   Mostly Cloudy
1:53 PM 64.0 °F 48.0 °F 56% 30.39 in 10.0 mi SSE 11.5 mph 19.6 mph N/A   Overcast
2:53 PM 63.0 °F 48.0 °F 58% 30.38 in 10.0 mi South 8.1 mph 19.6 mph N/A   Overcast
3:53 PM 62.1 °F 48.9 °F 62% 30.38 in 10.0 mi South 11.5 mph 18.4 mph N/A   Overcast
4:53 PM 61.0 °F 48.9 °F 64% 30.38 in 10.0 mi South 12.7 mph - N/A   Overcast
5:53 PM 60.1 °F 48.9 °F 67% 30.37 in 10.0 mi South 10.4 mph - N/A   Overcast
6:53 PM 59.0 °F 48.9 °F 69% 30.35 in 10.0 mi South 11.5 mph 19.6 mph N/A   Overcast
7:53 PM 59.0 °F 48.9 °F 69% 30.35 in 10.0 mi South 10.4 mph 17.3 mph N/A   Overcast
8:53 PM 57.9 °F 48.9 °F 72% 30.35 in 10.0 mi South 15.0 mph 23.0 mph N/A   Overcast
9:53 PM 57.9 °F 48.9 °F 72% 30.32 in 10.0 mi South 12.7 mph 23.0 mph N/A   Overcast
10:53 PM 57.9 °F 48.9 °F 72% 30.32 in 10.0 mi South 12.7 mph 21.9 mph N/A   Overcast
11:53 PM 57.0 °F 48.0 °F 72% 30.31 in 10.0 mi South 11.5 mph 21.9 mph N/A   Overcast